Theta_e
305 306 306 306 306 306 306 306 306 306 307 307 307 306 308 308 309 312 311 313 313 313 312 312 315 315 317 317 318 312 314 315 318 319 335 339 342 339 340 343 342 340 342 339 343
305 305 305 305 306 306 306 306 306 306 307 307 307 307 310 309 311 314 315 314 313 314 315 315 314 315 313 316 316 314 313 317 315 320 334 337 339 340 342 342 343 343 341 340 344
304 304 305 305 305 305 306 306 306 306 307 307 307 309 311 310 313 310 320 320 314 312 315 316 315 314 314 315 316 314 316 318 317 316 330 336 339 340 341 340 342 342 342 339 349
305 305 305 305 306 306 306 306 306 307 307 307 307 311 310 312 311 322 319 318 316 312 316 315 312 313 314 316 315 318 315 316 316 319 329 336 337 339 337 334 337 341 340 339 340
305 305 305 306 306 307 307 307 307 307 307 307 310 312 312 315 312 313 314 315 314 314 316 313 313 314 317 316 316 315 317 316 315 313 324 334 339 339 337 335 334 340 340 340 337
304 305 305 305 306 308 308 307 307 307 307 307 312 311 313 309 311 314 318 319 315 316 315 313 312 314 318 317 317 317 316 315 317 316 320 337 337 337 336 333 335 340 339 337 337
304 304 304 305 305 307 308 308 308 308 308 310 311 311 318 309 318 318 316 317 317 315 313 314 315 315 317 318 316 317 320 317 319 317 331 334 339 338 334 334 336 339 338 336 338
304 304 304 304 306 307 308 308 309 311 310 312 309 315 309 312 311 311 312 312 316 316 316 315 315 316 317 316 316 319 316 319 318 318 325 319 317 336 332 335 336 337 337 336 338
304 304 304 305 306 307 309 313 315 313 313 310 313 317 310 313 316 314 314 316 319 320 315 315 317 316 317 317 316 314 319 320 319 319 318 316 317 316 332 334 336 335 337 336 340
304 304 305 306 307 308 312 317 317 316 317 318 317 315 313 316 319 319 317 316 319 317 317 317 315 317 314 315 316 319 320 319 319 318 317 318 317 318 328 335 336 334 335 340 342
304 304 305 306 307 310 312 315 309 309 315 314 314 313 314 318 321 320 318 318 319 318 317 317 317 317 316 317 318 319 320 319 320 319 319 317 315 315 332 334 334 333 333 340 341
304 304 305 307 308 313 311 311 310 310 307 310 311 313 315 316 319 320 321 317 319 318 317 317 316 316 318 319 320 321 320 319 318 319 318 317 319 326 333 334 334 334 338 339 340
304 303 305 307 309 309 310 311 309 309 309 312 311 313 313 316 317 320 319 316 318 318 316 317 317 318 319 319 321 320 320 319 319 320 319 318 318 343 344 344 340 344 342 341 340
303 303 302 306 308 305 310 310 311 310 312 316 317 314 313 317 320 320 320 316 318 318 317 316 316 318 318 320 320 320 318 320 320 321 320 318 321 323 346 347 344 344 342 339 337
302 302 301 301 303 304 308 309 312 314 314 320 319 315 314 317 318 322 321 317 315 319 320 321 319 318 319 318 320 320 320 320 321 320 320 321 318 316 342 348 346 341 338 338 335
300 300 299 302 301 307 307 310 311 310 310 319 316 316 317 318 321 317 318 318 316 318 319 320 320 319 319 319 319 320 321 319 317 317 320 320 319 319 333 344 344 342 336 336 341
299 300 299 300 304 308 307 309 308 313 312 320 317 315 316 317 320 321 316 316 316 317 316 316 317 319 321 320 320 319 317 320 321 320 320 319 320 320 323 327 344 343 335 338 338
299 300 302 302 302 304 309 306 310 310 315 318 316 316 317 317 319 319 319 315 314 316 315 316 317 317 319 320 320 318 317 320 323 321 320 320 324 324 335 333 341 339 336 338 335
299 301 304 305 305 303 305 307 307 310 315 316 315 316 316 316 315 317 318 317 316 315 317 318 319 319 320 320 319 321 320 318 319 320 322 321 326 338 340 345 344 341 337 335 332
299 303 304 308 305 308 306 309 309 313 315 315 314 316 316 315 315 314 318 319 319 315 315 316 319 319 318 320 319 319 318 321 317 322 322 320 328 339 340 342 339 339 337 333 330
301 302 307 308 310 306 308 308 311 313 315 316 315 315 315 315 314 315 317 320 320 318 315 315 316 319 318 318 318 317 319 319 317 319 321 321 321 320 336 339 340 340 336 332 329
300 299 308 308 309 306 309 310 312 314 315 315 315 314 314 315 315 315 316 319 317 317 318 318 314 317 317 317 318 317 318 319 320 321 323 321 321 321 333 336 338 336 334 330 329
297 301 307 308 311 311 311 314 315 315 315 316 315 316 316 316 316 315 316 316 314 316 317 317 316 319 318 317 319 320 319 318 318 317 324 328 326 325 333 333 333 333 331 329 328
298 303 303 305 307 310 312 313 314 314 314 313 314 315 316 317 313 314 315 315 318 315 323 320 317 319 322 320 318 320 322 318 318 320 320 322 322 327 333 333 332 331 330 330 329
297 302 303 307 309 309 311 313 313 314 314 314 316 316 317 318 317 318 321 319 319 320 322 316 319 320 320 321 323 321 323 321 319 319 321 322 323 320 331 333 332 331 331 331 330
300 302 301 304 305 309 310 310 312 313 310 309 315 314 315 316 318 321 319 318 319 317 317 315 316 319 318 320 323 323 321 321 322 321 321 321 321 322 329 330 331 332 332 332 330
300 301 300 304 305 306 307 307 309 308 309 311 314 314 314 316 314 314 314 315 316 316 317 316 315 318 317 322 325 326 323 322 323 321 322 324 323 335 336 333 333 332 332 332 331
Wind_Speed
15 15 16 16 16 17 17 18 18 19 19 20 18 17 15 16 15 14 9 16 5 10 18 10 6 3 1 1 3 4 4 3 4 5 2 4 3 1 4 2 3 0 2 10 29
17 17 17 18 18 18 19 19 19 20 20 20 18 16 15 15 15 14 21 18 14 7 4 5 2 1 2 1 1 4 4 7 7 6 4 6 5 8 1 3 5 9 12 17 35
18 18 19 20 20 21 20 20 20 20 21 20 17 15 12 12 5 8 6 6 16 14 6 5 5 2 1 2 3 5 6 4 3 6 9 9 5 6 5 8 12 21 14 18 27
19 20 20 21 21 21 21 22 21 21 21 19 16 12 8 4 4 2 4 12 11 16 9 6 3 4 2 4 3 2 9 4 5 8 8 11 9 5 9 9 9 11 23 17 19
20 21 22 23 23 23 22 22 22 21 20 17 13 8 3 2 10 11 17 10 17 19 11 6 4 5 3 3 1 5 5 4 8 4 10 11 18 10 20 20 3 6 14 15 14
21 22 23 24 24 24 24 24 22 20 17 14 9 4 1 4 5 11 4 3 13 19 10 9 6 7 2 3 2 4 5 9 6 7 5 15 6 6 18 13 10 8 10 9 6
23 25 26 26 27 26 26 25 22 17 13 9 6 3 1 14 3 6 4 2 4 18 6 13 11 5 1 6 3 3 5 8 5 3 5 8 3 16 11 9 12 13 5 3 6
25 27 28 29 28 27 28 23 20 14 7 3 1 3 7 9 10 19 19 15 13 12 18 4 14 2 3 3 7 4 4 3 6 3 4 3 8 14 10 9 13 14 9 9 7
27 28 29 30 30 30 25 22 8 2 2 2 4 3 9 8 10 14 18 9 9 10 9 2 6 5 3 2 5 7 2 1 8 2 5 6 11 5 12 16 15 9 9 11 7
29 31 31 30 30 27 22 5 6 4 4 1 1 2 5 3 7 8 13 18 5 3 2 4 2 1 3 4 3 2 3 3 4 7 9 14 16 10 15 18 15 8 8 10 14
28 31 31 31 31 18 20 2 6 3 2 6 5 5 7 10 7 3 7 9 4 2 4 2 3 6 7 6 4 1 1 3 11 10 4 8 11 10 3 7 9 9 10 13 9
28 30 31 29 27 9 14 7 5 6 10 13 17 15 26 5 5 6 4 6 6 7 2 3 6 8 4 3 3 3 5 9 9 8 4 9 8 4 5 6 14 12 12 12 10
28 29 29 29 13 10 8 5 20 11 4 9 6 6 6 14 9 9 5 4 4 6 6 7 7 4 4 3 3 3 4 7 7 7 4 5 6 6 5 5 3 4 2 4 15
26 29 30 30 3 20 6 20 22 4 4 7 4 6 4 9 5 13 8 6 2 10 7 6 6 7 4 6 6 6 8 10 6 2 2 2 4 5 4 2 2 1 4 5 6
26 25 28 23 15 8 10 21 17 2 4 2 2 3 2 8 3 4 8 4 8 5 6 7 2 4 6 10 7 11 6 8 7 4 3 2 3 6 4 5 6 6 3 5 6
27 27 28 13 15 13 15 22 2 5 6 6 3 2 3 4 2 1 4 4 5 5 2 7 1 6 7 5 7 7 3 3 4 2 2 4 5 4 6 9 5 3 4 7 8
28 28 25 18 5 5 17 5 4 3 6 5 5 5 4 4 4 3 5 5 6 3 6 6 5 3 3 7 2 4 5 3 4 4 5 4 3 8 3 8 14 16 10 7 8
32 27 19 21 13 4 5 5 3 3 5 5 5 8 1 7 2 4 3 3 2 4 2 6 8 7 4 7 8 6 8 5 6 4 6 4 5 5 6 12 5 8 9 6 8
32 20 15 6 7 11 4 3 7 5 3 7 9 4 6 6 5 1 5 5 9 10 9 6 6 5 5 6 8 2 4 5 5 2 2 4 3 2 6 10 11 12 11 9 7
20 12 11 4 15 12 4 5 4 3 3 3 2 6 5 6 5 7 3 2 3 6 3 4 6 7 9 3 3 6 5 2 3 4 4 4 3 5 4 7 8 12 14 11 10
7 4 7 11 12 5 4 6 4 1 6 4 1 4 2 3 5 3 5 4 3 4 3 5 5 18 2 5 8 1 1 2 4 5 6 3 6 8 13 15 19 16 13 15 14
4 2 6 16 3 1 3 5 3 4 4 4 4 7 5 2 4 3 5 3 7 3 2 1 4 7 13 12 5 6 8 7 4 6 3 4 7 4 13 19 14 13 14 14 15
1 3 5 5 2 2 3 2 2 2 2 3 2 1 1 2 3 6 5 4 8 6 2 2 2 4 11 5 3 5 7 5 3 4 7 5 6 3 8 13 14 16 15 15 13
2 2 4 3 1 6 2 3 2 3 5 5 5 4 4 3 3 4 5 7 13 8 6 4 4 7 7 6 5 5 7 7 7 3 4 8 7 4 8 14 15 16 17 16 14
1 3 1 2 1 3 3 0 2 3 2 4 2 4 3 3 4 2 5 6 9 9 5 3 6 6 7 9 10 17 7 7 9 7 7 12 9 11 15 18 22 24 16 16 17
2 1 4 2 4 1 5 6 6 2 2 3 1 3 2 3 1 3 5 2 6 6 7 6 4 3 7 8 6 7 15 18 8 4 6 6 7 5 4 7 11 20 20 20 19
1 2 3 3 2 1 3 2 3 0 3 3 3 2 4 2 5 10 11 11 11 8 2 3 3 2 6 4 9 7 11 16 11 5 8 7 9 5 3 15 17 19 22 23 22
Wind_Direction
1 357 353 349 345 345 345 343 340 339 335 334 330 328 324 314 307 292 247 250 238 251 237 263 301 4 164 257 156 118 67 244 217 178 185 176 142 253 302 160 245 175 210 169 162
359 355 350 347 344 342 340 339 338 335 333 332 328 327 324 319 313 262 278 269 234 206 154 180 105 41 26 239 189 109 138 226 190 162 174 193 163 162 216 224 237 212 235 185 150
357 354 351 347 345 341 336 335 334 333 331 328 327 327 324 328 330 248 16 351 214 208 191 134 123 104 105 303 201 170 196 235 206 200 162 177 182 178 178 244 223 198 179 139 148
354 352 349 346 343 339 334 332 331 329 327 324 324 323 318 333 286 244 15 356 179 182 170 136 102 117 162 222 204 182 247 244 262 178 139 179 153 225 201 222 236 171 164 152 166
352 350 346 344 341 337 331 329 325 325 322 318 318 317 322 340 252 281 297 314 164 175 183 141 147 146 203 221 240 207 267 220 260 198 217 152 191 187 222 232 246 165 156 180 188
351 349 346 342 338 333 330 325 322 320 316 312 311 299 128 269 276 301 307 152 175 175 181 169 192 201 224 258 182 214 271 286 273 290 189 172 174 158 240 221 199 204 198 181 172
351 347 344 341 338 332 328 324 320 313 305 300 298 171 192 239 142 61 42 353 229 202 169 207 205 64 20 313 249 283 308 328 299 102 155 124 87 228 240 183 188 212 150 137 153
351 348 345 342 337 334 326 326 314 304 289 282 189 145 247 266 276 265 263 267 248 233 228 251 210 159 196 279 350 355 38 25 292 334 190 146 257 227 238 190 205 215 156 177 187
349 347 343 341 340 335 333 333 344 71 89 131 126 151 265 299 273 265 237 219 229 238 234 162 152 192 353 88 7 6 242 304 314 312 145 219 279 225 200 199 213 193 177 188 181
346 345 343 342 342 336 344 34 58 76 87 87 161 355 269 296 323 284 220 220 205 81 174 154 89 150 34 72 235 259 353 321 266 303 357 309 278 280 199 192 202 162 185 181 178
345 343 341 340 343 342 354 358 10 350 330 231 210 254 293 313 326 264 189 155 113 128 180 181 107 212 230 205 204 253 204 279 285 274 258 256 254 287 116 139 173 194 185 198 156
341 342 339 339 341 2 12 75 56 310 296 246 246 243 250 343 316 305 183 142 147 192 141 10 245 226 212 203 222 280 304 286 284 270 139 299 344 31 163 217 199 193 204 176 140
339 340 339 338 346 3 2 40 341 357 266 291 218 228 223 167 212 265 163 164 152 151 180 188 225 119 175 257 260 257 232 276 244 322 298 337 351 353 26 23 75 28 321 176 164
336 336 340 339 54 341 324 337 337 353 359 278 254 266 165 147 238 211 205 151 185 187 161 222 250 233 190 233 167 273 198 246 268 287 226 51 275 315 330 17 332 146 133 108 111
333 333 334 344 317 313 318 334 332 99 338 255 164 165 156 174 187 237 174 134 187 173 136 231 206 188 201 229 151 239 145 224 244 213 108 335 71 281 355 294 253 243 196 133 127
330 328 331 330 303 292 327 334 12 46 256 322 111 105 82 293 260 21 133 95 170 171 223 225 255 166 219 250 171 260 287 77 70 106 53 247 140 265 211 208 234 255 211 148 124
326 319 316 294 258 309 325 2 44 158 321 355 344 341 206 214 262 54 152 147 159 133 256 339 269 251 215 304 341 117 73 320 335 346 217 206 102 230 226 227 202 201 189 151 118
322 317 307 270 259 269 327 53 189 253 266 338 333 315 350 19 296 189 119 218 236 99 111 202 301 200 181 185 214 194 160 160 226 219 244 260 234 253 271 246 205 126 134 116 102
324 324 302 304 224 185 88 115 206 221 317 352 332 15 4 349 37 19 199 224 205 172 184 167 265 272 178 191 149 250 200 207 129 355 53 232 284 286 15 62 112 130 129 145 139
326 323 298 303 153 137 83 223 235 236 8 346 323 27 355 326 22 23 301 281 236 203 22 265 273 237 257 150 247 168 176 16 348 156 241 283 261 236 221 171 159 161 165 161 155
334 350 328 155 138 55 166 226 268 226 52 36 2 317 306 317 13 329 274 310 44 349 158 153 159 264 51 184 218 289 193 58 143 143 179 219 258 218 201 187 185 187 172 169 171
10 332 123 154 61 52 165 192 322 304 73 288 233 221 236 9 306 254 248 236 31 321 2 323 178 255 244 248 245 208 212 160 142 264 244 178 257 217 201 191 177 170 180 180 182
26 265 235 186 176 258 272 244 216 275 267 262 283 215 77 250 276 222 243 312 349 25 73 302 341 353 340 345 29 211 211 178 130 92 197 192 261 348 133 152 172 180 185 183 173
5 335 311 40 125 155 155 267 261 300 271 235 259 290 14 345 228 293 326 340 341 332 266 141 172 180 212 237 294 248 215 188 161 148 224 219 242 235 163 164 174 186 189 183 173
50 259 189 287 20 128 139 332 285 303 259 7 83 78 91 303 313 130 22 325 317 317 317 174 217 193 245 253 269 247 233 193 182 207 190 253 207 231 189 182 186 188 168 171 176
145 353 349 292 295 202 164 203 217 288 304 292 54 1 153 198 314 310 16 342 253 317 10 325 283 293 282 284 336 282 243 237 231 176 239 248 256 219 173 127 160 180 175 178 175
326 336 103 298 320 131 187 100 64 41 265 25 146 251 208 179 300 266 241 238 239 259 254 257 213 1 271 335 319 292 230 228 227 192 174 210 230 144 168 179 184 180 180 179 180